DW8343 Weather Reports


Display with metric or nautical units.
time (UTC)temp
F
wind
direction
speed
MPH
gust
MPH
rain 1hr
in
rain 24hr
in
rain mn
in
humidity
%
barometer
mb
20220924222821 82 45 0.0 2.0 0.00 0.01 0.01 60 1013.2
20220924222311 82 45 1.0 2.0 0.00 0.01 0.01 60 1013.1
20220924222031 83 90 0.0 2.0 0.00 0.01 0.01 60 1013.2
20220924221250 83 90 1.0 2.0 0.00 0.01 0.01 60 1013.4
20220924221011 83 68 0.0 2.0 0.00 0.01 0.01 60 1013.4
20220924220229 83 68 0.0 2.0 0.00 0.01 0.01 60 1013.2
20220924215721 83 90 0.0 2.0 0.00 0.01 0.01 60 1013.4
20220924215210 83 90 0.0 1.0 0.00 0.01 0.01 60 1013.6
20220924214930 83 45 0.0 1.0 0.00 0.01 0.01 58 1013.7
20220924214149 83 90 0.0 1.0 0.00 0.01 0.01 56 1013.6
20220924213639 84 90 0.0 1.0 0.00 0.01 0.01 55 1013.9
20220924213130 84 45 0.0 1.0 0.00 0.01 0.01 54 1013.8
20220924212850 84 90 0.0 1.0 0.00 0.01 0.01 54 1013.9
20220924212339 84 90 0.0 1.0 0.00 0.01 0.01 54 1013.9
20220924211830 84 90 0.0 2.0 0.00 0.01 0.01 54 1013.9
20220924211319 84 45 1.0 3.0 0.00 0.01 0.01 52 1013.8
20220924210538 84 68 0.0 3.0 0.00 0.01 0.01 52 1014.0
20220924210259 85 90 0.0 2.0 0.00 0.01 0.01 53 1014.0
20220924205518 85 45 0.0 1.0 0.00 0.01 0.01 54 1014.0
20220924205239 85 90 0.0 2.0 0.00 0.01 0.01 53 1014.2
20220924204458 85 90 0.0 2.0 0.00 0.01 0.01 53 1014.2
20220924203948 85 90 0.0 1.0 0.00 0.01 0.01 53 1014.2
20220924203437 85 45 0.0 1.0 0.00 0.01 0.01 54 1014.5
20220924202927 85 90 0.0 1.0 0.00 0.01 0.01 54 1014.4
20220924202417 84 45 0.0 0.0 0.00 0.01 0.01 56 1014.2
20220924201907 84 90 0.0 0.0 0.00 0.01 0.01 57 1014.5
20220924201357 84 90 0.0 0.0 0.00 0.01 0.01 56 1014.4
20220924200847 84 90 0.0 0.0 0.00 0.01 0.01 57 1014.4
20220924200336 85 90 0.0 0.0 0.00 0.01 0.01 54 1014.5
20220924200057 85 90 0.0 3.0 0.00 0.01 0.01 53 1014.6
20220924195316 85 45 0.0 3.0 0.00 0.01 0.01 51 1014.9
20220924195037 85 338 0.0 2.0 0.00 0.01 0.01 53 1014.9
20220924194258 86 45 0.0 3.0 0.00 0.01 0.01 52 1014.9
20220924193746 85 90 0.0 3.0 0.00 0.01 0.01 54 1015.0
20220924193235 84 180 0.0 1.0 0.00 0.01 0.01 58 1015.1
20220924192958 84 90 0.0 0.0 0.00 0.01 0.01 60 1015.1
20220924192215 83 45 0.0 0.0 0.00 0.01 0.01 61 1015.3
20220924191705 82 90 0.0 1.0 0.00 0.01 0.01 62 1015.2
20220924191425 81 45 0.0 1.0 0.00 0.01 0.01 65 1015.3
20220924190644 81 45 0.0 1.0 0.00 0.01 0.01 64 1015.4
20220924190134 82 90 0.0 1.0 0.00 0.01 0.01 64 1015.5
20220924185114 82 90 0.0 0.0 0.00 0.01 0.01 65 1015.3
20220924184604 81 90 0.0 0.0 0.00 0.01 0.01 66 1015.7
20220924184054 81 90 0.0 0.0 0.00 0.01 0.01 66 1015.8
20220924183544 81 90 0.0 0.0 0.00 0.01 0.01 64 1015.5
20220924183034 81 45 0.0 0.0 0.00 0.01 0.01 65 1015.8
20220924182524 81 45 0.0 0.0 0.00 0.01 0.01 66 1015.5
20220924182014 80 90 0.0 0.0 0.00 0.01 0.01 68 1015.8
20220924181504 79 90 0.0 1.0 0.00 0.01 0.01 68 1016.1
20220924180953 78 90 0.0 1.0 0.00 0.01 0.01 69 1016.1
20220924180715 78 45 0.0 3.0 0.00 0.01 0.01 69 1016.2
20220924175933 78 315 1.0 3.0 0.00 0.01 0.01 69 1016.3
20220924175423 78 158 1.0 3.0 0.00 0.01 0.01 71 1016.3
20220924174913 77 45 1.0 3.0 0.00 0.01 0.01 77 1016.2
20220924174403 76 90 0.0 2.0 0.00 0.01 0.01 80 1016.5
20220924173343 75 90 0.0 1.0 0.01 0.01 0.01 81 1016.5
20220924172832 75 90 0.0 1.0 0.01 0.01 0.01 81 1016.6
20220924172322 74 90 1.0 1.0 0.01 0.01 0.01 80 1016.7
20220924171532 74 45 0.0 1.0 0.01 0.01 0.01 80 1016.5
20220924170752 74 90 0.0 1.0 0.01 0.01 0.01 80 1016.7
20220924170241 74 90 0.0 1.0 0.01 0.01 0.01 80 1016.8
20220924165731 74 45 0.0 3.0 0.01 0.01 0.01 80 1016.8
20220924165221 74 90 0.0 3.0 0.01 0.01 0.01 79 1016.7
20220924164711 74 90 0.0 2.0 0.01 0.01 0.01 78 1016.9
20220924163651 74 45 0.0 0.0 0.00 0.00 0.00 75 1016.7
20220924163411 74 90 0.0 1.0 0.00 0.00 0.00 73 1016.8
20220924162630 75 90 0.0 1.0 0.00 0.00 0.00 71 1016.8
20220924162120 76 45 1.0 5.0 0.00 0.00 0.00 69 1017.0
20220924161610 76 90 0.0 5.0 0.00 0.00 0.00 67 1016.8
20220924161100 78 45 1.0 1.0 0.00 0.00 0.00 65 1016.8
20220924160821 76 315 1.0 1.0 0.00 0.00 0.00 71 1016.7
20220924160041 76 315 1.0 1.0 0.00 0.00 0.00 71 1016.7
20220924155530 76 90 0.0 0.0 0.00 0.00 0.00 70 1016.5
20220924155020 76 45 0.0 0.0 0.00 0.00 0.00 70 1016.6
20220924154509 75 90 0.0 0.0 0.00 0.00 0.00 70 1016.7
20220924154230 75 90 0.0 0.0 0.00 0.00 0.00 69 1016.4
20220924153449 75 90 0.0 0.0 0.00 0.00 0.00 69 1016.4
20220924152939 76 90 0.0 0.0 0.00 0.00 0.00 65 1016.4
20220924152429 77 45 0.0 2.0 0.00 0.00 0.00 63 1016.4
20220924151919 78 45 0.0 2.0 0.00 0.00 0.00 59 1016.5
20220924151408 78 90 0.0 2.0 0.00 0.00 0.00 58 1016.2
20220924150858 78 45 0.0 2.0 0.00 0.00 0.00 58 1016.3
20220924150348 78 90 1.0 2.0 0.00 0.00 0.00 58 1016.0
20220924150108 78 90 0.0 3.0 0.00 0.00 0.00 57 1016.0
20220924145327 79 45 1.0 3.0 0.00 0.00 0.00 55 1015.9
20220924145048 79 90 1.0 3.0 0.00 0.00 0.00 54 1015.9
20220924144307 79 180 1.0 3.0 0.00 0.00 0.00 55 1015.9
20220924142737 79 90 1.0 3.0 0.00 0.00 0.00 55 1015.9
20220924142457 79 225 1.0 4.0 0.00 0.00 0.00 56 1015.7
20220924141948 79 180 1.0 5.0 0.00 0.00 0.00 55 1015.5
20220924141206 79 0 1.0 5.0 0.00 0.00 0.00 57 1015.8
20220924140656 78 270 1.0 5.0 0.00 0.00 0.00 58 1015.2
20220924140146 78 270 1.0 5.0 0.00 0.00 0.00 58 1015.3
20220924135636 78 135 1.0 7.0 0.00 0.00 0.00 58 1015.5
20220924135357 78 90 2.0 7.0 0.00 0.00 0.00 58 1015.2
20220924134616 77 315 1.0 3.0 0.00 0.00 0.00 59 1015.3
20220924134106 77 0 1.0 4.0 0.00 0.00 0.00 59 1015.5
20220924133826 77 90 1.0 4.0 0.00 0.00 0.00 60 1015.5
20220924133318 77 45 1.0 3.0 0.00 0.00 0.00 60 1015.3
20220924132025 76 45 1.0 6.0 0.00 0.00 0.00 61 1015.2
20220924131515 76 225 3.0 6.0 0.00 0.00 0.00 61 1015.2
20220924131005 75 90 0.0 4.0 0.00 0.00 0.00 62 1015.1
20220924130455 75 180 2.0 4.0 0.00 0.00 0.00 62 1015.2
20220924125944 75 270 1.0 4.0 0.00 0.00 0.00 63 1015.2
20220924125434 74 225 1.0 3.0 0.00 0.00 0.00 64 1014.9
20220924124924 74 293 1.0 3.0 0.00 0.00 0.00 64 1015.0
20220924124414 74 113 1.0 3.0 0.00 0.00 0.00 64 1014.8
20220924123625 74 45 1.0 3.0 0.00 0.00 0.00 65 1014.8
20220924122843 74 135 0.0 3.0 0.00 0.00 0.00 64 1014.6
20220924122054 74 45 1.0 3.0 0.00 0.00 0.00 64 1014.8
20220924120805 74 113 1.0 2.0 0.00 0.00 0.00 64 1014.7
20220924120525 75 158 1.0 3.0 0.00 0.00 0.00 64 1014.8
20220924115232 75 225 1.0 3.0 0.00 0.00 0.00 64 1014.5
20220924114954 75 90 1.0 3.0 0.00 0.00 0.00 64 1014.5
20220924114212 75 225 1.0 3.0 0.00 0.00 0.00 63 1014.4
20220924113702 75 225 1.0 3.0 0.00 0.00 0.00 63 1014.5
20220924113152 75 315 1.0 4.0 0.00 0.00 0.00 63 1014.4
20220924112912 76 0 1.0 4.0 0.00 0.00 0.00 63 1014.3
20220924112132 76 68 1.0 4.0 0.00 0.00 0.00 63 1014.1
20220924111623 76 0 1.0 4.0 0.00 0.00 0.00 63 1014.4
20220924111112 76 203 1.0 4.0 0.00 0.00 0.00 63 1014.3
20220924110601 76 45 2.0 5.0 0.00 0.00 0.00 63 1014.1
20220924110054 76 45 0.0 5.0 0.00 0.00 0.00 63 1014.3
20220924105543 76 225 3.0 5.0 0.00 0.00 0.00 63 1014.1
20220924105031 76 0 3.0 5.0 0.00 0.00 0.00 63 1014.0
20220924104523 76 225 1.0 5.0 0.00 0.00 0.00 63 1014.1
20220924104011 76 45 1.0 5.0 0.00 0.00 0.00 63 1014.0
20220924103502 76 0 1.0 5.0 0.00 0.00 0.00 63 1014.0
20220924102950 76 0 3.0 5.0 0.00 0.00 0.00 63 1014.1
20220924102507 76 225 2.0 5.0 0.00 0.00 0.00 63 1013.9
20220924101937 76 90 2.0 5.0 0.00 0.00 0.00 63 1013.9
20220924101422 76 180 1.0 5.0 0.00 0.00 0.00 63 1013.9
20220924100644 77 45 0.0 3.0 0.00 0.00 0.00 62 1014.0
20220924095850 77 315 2.0 3.0 0.00 0.00 0.00 62 1013.9
20220924095343 77 68 1.0 4.0 0.00 0.00 0.00 60 1013.9
20220924094830 77 45 1.0 4.0 0.00 0.00 0.00 60 1013.9
20220924094358 77 113 1.0 4.0 0.00 0.00 0.00 60 1013.9
20220924093324 78 90 1.0 3.0 0.00 0.00 0.00 60 1013.7
20220924092749 78 158 1.0 5.0 0.00 0.00 0.00 59 1013.9
20220924092510 78 135 3.0 5.0 0.00 0.00 0.00 59 1014.0
20220924091219 78 113 2.0 6.0 0.00 0.00 0.00 59 1013.9
20220924090708 78 90 2.0 6.0 0.00 0.00 0.00 58 1013.9
20220924090158 78 90 1.0 5.0 0.00 0.00 0.00 58 1014.1
20220924085959 79 293 2.0 4.0 0.00 0.00 0.00 58 1014.0
20220924085216 79 180 3.0 5.0 0.00 0.00 0.00 57 1014.0
20220924084859 79 113 1.0 8.0 0.00 0.00 0.00 57 1013.9
20220924084117 79 315 2.0 8.0 0.00 0.00 0.00 56 1013.9
20220924083609 79 203 3.0 5.0 0.00 0.00 0.00 56 1013.9
20220924083331 80 180 1.0 5.0 0.00 0.00 0.00 56 1014.2
20220924082550 80 135 2.0 5.0 0.00 0.00 0.00 55 1014.1
20220924082037 80 203 3.0 5.0 0.00 0.00 0.00 55 1013.9
20220924081810 80 90 1.0 5.0 0.00 0.00 0.00 54 1013.9
20220924081017 80 225 1.0 3.0 0.00 0.00 0.00 54 1014.1
20220924080507 80 90 1.0 4.0 0.00 0.00 0.00 53 1014.0
20220924075959 80 248 3.0 7.0 0.00 0.00 0.00 53 1014.1
20220924075716 80 0 3.0 7.0 0.00 0.00 0.00 53 1014.0
20220924074936 81 270 1.0 7.0 0.00 0.00 0.00 51 1014.0
20220924074425 81 180 3.0 7.0 0.00 0.00 0.00 51 1013.9
20220924074146 81 225 3.0 6.0 0.00 0.00 0.00 51 1013.8
20220924073405 81 225 1.0 8.0 0.00 0.00 0.00 51 1013.9
20220924072855 81 135 3.0 8.0 0.00 0.00 0.00 50 1013.8
20220924072345 81 225 1.0 7.0 0.00 0.00 0.00 50 1013.7
20220924071835 81 158 2.0 7.0 0.00 0.00 0.00 49 1013.7
20220924071325 82 180 2.0 6.0 0.00 0.00 0.00 49 1013.6
20220924070815 82 180 2.0 6.0 0.00 0.00 0.00 48 1013.8
20220924070537 82 180 2.0 7.0 0.00 0.00 0.00 48 1013.8
20220924070028 82 158 3.0 10.0 0.00 0.00 0.00 48 1013.5
20220924065244 82 45 4.0 10.0 0.00 0.00 0.00 48 1013.6
20220924065004 82 180 2.0 9.0 0.00 0.00 0.00 50 1013.5
20220924064227 82 45 2.0 7.0 0.00 0.00 0.00 50 1013.6
20220924063715 83 0 1.0 7.0 0.00 0.00 0.00 49 1013.7
20220924063204 83 90 3.0 9.0 0.00 0.00 0.00 49 1013.6
20220924062655 83 315 7.0 9.0 0.00 0.00 0.00 49 1013.6
20220924062415 83 0 2.0 8.0 0.00 0.00 0.00 49 1013.4
20220924061633 83 270 3.0 8.0 0.00 0.00 0.00 49 1013.5
20220924061123 83 225 3.0 6.0 0.00 0.00 0.00 49 1013.4
20220924060613 83 158 2.0 8.0 0.00 0.00 0.00 49 1013.3
20220924060103 83 158 2.0 8.0 0.00 0.00 0.00 49 1013.2
20220924055552 82 90 3.0 7.0 0.00 0.00 0.00 47 1013.2
20220924054533 82 315 3.0 5.0 0.00 0.00 0.00 48 1013.5
20220924054254 82 45 2.0 4.0 0.00 0.00 0.00 48 1013.5
20220924053750 81 270 1.0 6.0 0.00 0.00 0.00 48 1013.5
20220924053003 81 270 2.0 6.0 0.00 0.00 0.00 48 1013.4
20220924052455 81 180 1.0 4.0 0.00 0.00 0.00 48 1013.5
20220924051943 81 0 1.0 5.0 0.00 0.00 0.00 48 1013.6
20220924051702 81 90 2.0 5.0 0.00 0.00 0.00 47 1013.4
20220924050922 81 90 1.0 4.0 0.00 0.00 0.00 47 1013.5
20220924050642 81 0 1.0 4.0 0.00 0.00 0.00 47 1013.5
20220924045901 81 90 1.0 5.0 0.00 0.00 0.00 47 1013.8
20220924045352 81 180 2.0 6.0 0.00 0.00 0.00 47 1013.7
20220924044842 81 45 3.0 7.0 0.00 0.00 0.00 47 1013.7
20220924044330 82 315 1.0 7.0 0.00 0.00 0.00 47 1013.7
20220924044052 82 0 3.0 6.0 0.00 0.00 0.00 47 1013.7
20220924043311 82 45 2.0 6.0 0.00 0.00 0.00 46 1013.6
20220924043032 82 45 1.0 4.0 0.00 0.00 0.00 47 1013.6
20220924042250 82 90 0.0 5.0 0.00 0.00 0.00 47 1013.7
20220924042013 81 90 0.0 5.0 0.00 0.00 0.00 47 1013.6
20220924041501 81 135 1.0 3.0 0.00 0.00 0.00 47 1013.6
20220924040721 81 270 1.0 3.0 0.00 0.00 0.00 47 1013.7
20220924040210 81 270 1.0 4.0 0.00 0.00 0.00 47 1013.6
20220924035700 81 45 1.0 5.0 0.00 0.00 0.00 47 1013.5
20220924035150 81 90 1.0 5.0 0.00 0.00 0.00 47 1013.5
20220924034912 81 135 1.0 3.0 0.00 0.00 0.00 47 1013.8
20220924034129 81 90 1.0 3.0 0.00 0.00 0.00 47 1013.7
20220924033620 81 23 1.0 3.0 0.00 0.00 0.00 47 1013.7
20220924033109 81 45 1.0 3.0 0.00 0.00 0.00 46 1013.8
20220924032830 82 180 1.0 3.0 0.00 0.00 0.00 46 1013.8
20220924032319 82 158 1.0 3.0 0.00 0.00 0.00 46 1014.0
20220924031029 82 135 1.0 4.0 0.00 0.00 0.00 46 1013.8
20220924030239 81 315 1.0 3.0 0.00 0.00 0.00 47 1013.8
20220924025219 81 135 1.0 3.0 0.00 0.00 0.00 46 1013.9
20220924024711 81 90 0.0 1.0 0.00 0.00 0.00 46 1013.8
20220924023927 81 270 0.0 1.0 0.00 0.00 0.00 46 1013.8
20220924022907 81 90 0.0 1.0 0.00 0.00 0.00 46 1013.7
20220924022357 82 90 0.0 0.0 0.00 0.00 0.00 46 1013.9
20220924021847 82 90 0.0 1.0 0.00 0.00 0.00 46 1013.8
20220924021336 82 90 0.0 1.0 0.00 0.00 0.00 45 1013.7
20220924020316 83 90 1.0 2.0 0.00 0.00 0.00 45 1013.6
20220924015806 83 90 0.0 2.0 0.00 0.00 0.00 45 1013.4
20220924015256 83 90 0.0 1.0 0.00 0.00 0.00 44 1013.3
20220924014746 83 90 0.0 1.0 0.00 0.00 0.00 44 1013.4
20220924014235 83 90 0.0 1.0 0.00 0.00 0.00 44 1013.2
20220924013725 83 90 0.0 1.0 0.00 0.00 0.00 44 1013.2
20220924013215 83 45 0.0 1.0 0.00 0.00 0.00 43 1013.2
20220924012155 85 90 0.0 1.0 0.00 0.00 0.00 42 1013.1
20220924011916 85 90 0.0 2.0 0.00 0.00 0.00 41 1013.0
20220924011136 86 90 0.0 2.0 0.00 0.00 0.00 39 1013.0
20220924010624 86 90 1.0 2.0 0.00 0.00 0.00 39 1013.1
20220924010115 87 90 1.0 3.0 0.00 0.00 0.00 39 1012.9
20220924005606 87 270 1.0 3.0 0.00 0.00 0.00 39 1012.9
20220924005055 87 45 1.0 3.0 0.00 0.00 0.00 39 1012.9
20220924004817 88 225 1.0 3.0 0.00 0.00 0.00 38 1012.7
20220924004034 88 225 1.0 4.0 0.00 0.00 0.00 37 1012.7
20220924003524 89 135 1.0 5.0 0.00 0.00 0.00 37 1012.9
20220924003245 89 135 1.0 6.0 0.00 0.00 0.00 37 1012.8
20220924002735 89 23 3.0 6.0 0.00 0.00 0.00 37 1012.9
20220924001953 89 248 3.0 6.0 0.00 0.00 0.00 37 1012.6
20220924001444 90 90 1.0 6.0 0.00 0.00 0.00 36 1013.0
20220924000937 90 225 2.0 6.0 0.00 0.00 0.00 35 1012.9
20220924000423 91 135 4.0 7.0 0.00 0.00 0.00 34 1012.8
20220923235912 91 248 3.0 7.0 0.00 0.00 0.00 34 1012.8
20220923235403 91 135 1.0 6.0 0.00 0.00 0.00 34 1012.8
20220923235124 91 158 3.0 6.0 0.00 0.00 0.00 34 1012.7
20220923234343 91 180 3.0 5.0 0.00 0.00 0.00 34 1012.7
20220923234104 92 0 3.0 9.0 0.00 0.00 0.00 36 1012.4
20220923233322 92 315 3.0 9.0 0.00 0.00 0.00 36 1012.3
20220923232813 92 45 3.0 9.0 0.00 0.00 0.00 36 1012.2
20220923231752 92 0 1.0 7.0 0.00 0.00 0.00 37 1012.2
20220923231242 92 135 2.0 8.0 0.00 0.00 0.00 36 1012.4
20220923230452 93 225 3.0 7.0 0.00 0.00 0.00 35 1012.3
20220923225941 94 270 4.0 7.0 0.00 0.00 0.00 35 1012.4
20220923225433 95 135 3.0 7.0 0.00 0.00 0.00 35 1012.4
20220923224141 95 270 3.0 8.0 0.00 0.00 0.00 35 1012.3
20220923223631 95 90 3.0 8.0 0.00 0.00 0.00 35 1012.3
20220923223121 95 293 3.0 8.0 0.00 0.00 0.00 35 1012.4